event-id,visible,timestamp,location-long,location-lat,bas:confidence,end-timestamp,geolocator-fix-type,manually-marked-outlier,start-timestamp,sensor-type,individual-taxon-canonical-name,tag-local-identifier,individual-local-identifier,study-name
9049882045,true,2016-08-02 03:44:13.000,13.881,37.386,9,2016-08-02 18:37:13.000,"Midday",false,2016-08-02 03:44:13.000,"solar-geolocator","Hydrobates pelagicus","Z659","S15852","Partial migration in the Mediterranean storm petrel (BirdLife Malta)"
9049882046,true,2016-08-02 11:10:43.000,13.562,36.98,9,2016-08-02 23:13:13.000,"Average",false,2016-08-02 11:10:43.000,"solar-geolocator","Hydrobates pelagicus","Z659","S15852","Partial migration in the Mediterranean storm petrel (BirdLife Malta)"
9049882047,true,2016-08-02 23:13:13.000,13.681,35.959,9,2016-08-03 11:09:43.000,"Average",false,2016-08-02 23:13:13.000,"solar-geolocator","Hydrobates pelagicus","Z659","S15852","Partial migration in the Mediterranean storm petrel (BirdLife Malta)"
9049882048,true,2016-08-03 11:09:43.000,13.79,34.893,9,2016-08-03 23:12:13.000,"Average",false,2016-08-03 11:09:43.000,"solar-geolocator","Hydrobates pelagicus","Z659","S15852","Partial migration in the Mediterranean storm petrel (BirdLife Malta)"
9049882049,true,2016-08-03 23:12:13.000,14.1,33.419,9,2016-08-04 11:07:13.000,"Average",false,2016-08-03 23:12:13.000,"solar-geolocator","Hydrobates pelagicus","Z659","S15852","Partial migration in the Mediterranean storm petrel (BirdLife Malta)"
9049882050,true,2016-08-04 11:07:13.000,15.139,33.282,9,2016-08-04 23:03:43.000,"Average",false,2016-08-04 11:07:13.000,"solar-geolocator","Hydrobates pelagicus","Z659","S15852","Partial migration in the Mediterranean storm petrel (BirdLife Malta)"
9049882051,true,2016-08-04 23:03:43.000,15.258,34.837,9,2016-08-05 11:06:13.000,"Average",false,2016-08-04 23:03:43.000,"solar-geolocator","Hydrobates pelagicus","Z659","S15852","Partial migration in the Mediterranean storm petrel (BirdLife Malta)"
9049882052,true,2016-08-05 11:06:13.000,14.804,35.374,9,2016-08-05 23:07:13.000,"Average",false,2016-08-05 11:06:13.000,"solar-geolocator","Hydrobates pelagicus","Z659","S15852","Partial migration in the Mediterranean storm petrel (BirdLife Malta)"
9049882053,true,2016-08-05 23:07:13.000,14.979,34.803,9,2016-08-06 11:04:43.000,"Average",false,2016-08-05 23:07:13.000,"solar-geolocator","Hydrobates pelagicus","Z659","S15852","Partial migration in the Mediterranean storm petrel (BirdLife Malta)"
9049882054,true,2016-08-06 11:04:43.000,15.276,34.451,9,2016-08-06 23:04:43.000,"Average",false,2016-08-06 11:04:43.000,"solar-geolocator","Hydrobates pelagicus","Z659","S15852","Partial migration in the Mediterranean storm petrel (BirdLife Malta)"
9049882055,true,2016-08-06 23:04:43.000,15.385,34.433,9,2016-08-07 11:03:43.000,"Average",false,2016-08-06 23:04:43.000,"solar-geolocator","Hydrobates pelagicus","Z659","S15852","Partial migration in the Mediterranean storm petrel (BirdLife Malta)"
9049882056,true,2016-08-07 11:03:43.000,15.619,34.648,9,2016-08-07 23:02:43.000,"Average",false,2016-08-07 11:03:43.000,"solar-geolocator","Hydrobates pelagicus","Z659","S15852","Partial migration in the Mediterranean storm petrel (BirdLife Malta)"
9049882057,true,2016-08-07 23:02:43.000,15.603,35.328,9,2016-08-08 11:03:43.000,"Average",false,2016-08-07 23:02:43.000,"solar-geolocator","Hydrobates pelagicus","Z659","S15852","Partial migration in the Mediterranean storm petrel (BirdLife Malta)"
9049882058,true,2016-08-08 11:03:43.000,15.461,35.779,9,2016-08-08 23:03:43.000,"Average",false,2016-08-08 11:03:43.000,"solar-geolocator","Hydrobates pelagicus","Z659","S15852","Partial migration in the Mediterranean storm petrel (BirdLife Malta)"
9049882059,true,2016-08-08 23:03:43.000,15.443,36.007,9,2016-08-09 11:03:43.000,"Average",false,2016-08-08 23:03:43.000,"solar-geolocator","Hydrobates pelagicus","Z659","S15852","Partial migration in the Mediterranean storm petrel (BirdLife Malta)"
9049882060,true,2016-08-09 11:03:43.000,15.424,36.236,9,2016-08-09 23:03:43.000,"Average",false,2016-08-09 11:03:43.000,"solar-geolocator","Hydrobates pelagicus","Z659","S15852","Partial migration in the Mediterranean storm petrel (BirdLife Malta)"
9049882061,true,2016-08-09 23:03:43.000,15.594,36.125,9,2016-08-10 11:02:13.000,"Average",false,2016-08-09 23:03:43.000,"solar-geolocator","Hydrobates pelagicus","Z659","S15852","Partial migration in the Mediterranean storm petrel (BirdLife Malta)"
9049882062,true,2016-08-10 11:02:13.000,15.447,35.42,9,2016-08-10 23:04:43.000,"Average",false,2016-08-10 11:02:13.000,"solar-geolocator","Hydrobates pelagicus","Z659","S15852","Partial migration in the Mediterranean storm petrel (BirdLife Malta)"
9049882063,true,2016-08-10 23:04:43.000,15.241,34.818,9,2016-08-11 11:03:43.000,"Average",false,2016-08-10 23:04:43.000,"solar-geolocator","Hydrobates pelagicus","Z659","S15852","Partial migration in the Mediterranean storm petrel (BirdLife Malta)"
9049882064,true,2016-08-11 11:03:43.000,15.031,34.183,9,2016-08-11 23:06:13.000,"Average",false,2016-08-11 11:03:43.000,"solar-geolocator","Hydrobates pelagicus","Z659","S15852","Partial migration in the Mediterranean storm petrel (BirdLife Malta)"
9049882065,true,2016-08-11 23:06:13.000,14.574,34.053,9,2016-08-12 11:07:13.000,"Average",false,2016-08-11 23:06:13.000,"solar-geolocator","Hydrobates pelagicus","Z659","S15852","Partial migration in the Mediterranean storm petrel (BirdLife Malta)"
9049882066,true,2016-08-12 11:07:13.000,14.613,34.932,9,2016-08-12 23:05:43.000,"Average",false,2016-08-12 11:07:13.000,"solar-geolocator","Hydrobates pelagicus","Z659","S15852","Partial migration in the Mediterranean storm petrel (BirdLife Malta)"
9049882067,true,2016-08-12 23:05:43.000,14.78,35.56,9,2016-08-13 11:05:43.000,"Average",false,2016-08-12 23:05:43.000,"solar-geolocator","Hydrobates pelagicus","Z659","S15852","Partial migration in the Mediterranean storm petrel (BirdLife Malta)"
9049882068,true,2016-08-13 11:05:43.000,14.568,35.438,9,2016-08-13 23:07:13.000,"Average",false,2016-08-13 11:05:43.000,"solar-geolocator","Hydrobates pelagicus","Z659","S15852","Partial migration in the Mediterranean storm petrel (BirdLife Malta)"
9049882069,true,2016-08-13 23:07:13.000,14.672,34.667,9,2016-08-14 11:04:43.000,"Average",false,2016-08-13 23:07:13.000,"solar-geolocator","Hydrobates pelagicus","Z659","S15852","Partial migration in the Mediterranean storm petrel (BirdLife Malta)"
9049882070,true,2016-08-14 11:04:43.000,14.959,34.274,9,2016-08-14 23:04:43.000,"Average",false,2016-08-14 11:04:43.000,"solar-geolocator","Hydrobates pelagicus","Z659","S15852","Partial migration in the Mediterranean storm petrel (BirdLife Malta)"
9049882071,true,2016-08-14 23:04:43.000,14.748,34.936,9,2016-08-15 11:06:13.000,"Average",false,2016-08-14 23:04:43.000,"solar-geolocator","Hydrobates pelagicus","Z659","S15852","Partial migration in the Mediterranean storm petrel (BirdLife Malta)"
9049882072,true,2016-08-15 11:06:13.000,14.843,36.241,9,2016-08-15 23:03:43.000,"Average",false,2016-08-15 11:06:13.000,"solar-geolocator","Hydrobates pelagicus","Z659","S15852","Partial migration in the Mediterranean storm petrel (BirdLife Malta)"
9049882073,true,2016-08-15 23:03:43.000,15.447,36.516,9,2016-08-16 11:01:13.000,"Average",false,2016-08-15 23:03:43.000,"solar-geolocator","Hydrobates pelagicus","Z659","S15852","Partial migration in the Mediterranean storm petrel (BirdLife Malta)"
9049882074,true,2016-08-16 11:01:13.000,15.417,35.482,9,2016-08-16 23:03:43.000,"Average",false,2016-08-16 11:01:13.000,"solar-geolocator","Hydrobates pelagicus","Z659","S15852","Partial migration in the Mediterranean storm petrel (BirdLife Malta)"
9049882075,true,2016-08-16 23:03:43.000,15.268,34.679,9,2016-08-17 11:02:13.000,"Average",false,2016-08-16 23:03:43.000,"solar-geolocator","Hydrobates pelagicus","Z659","S15852","Partial migration in the Mediterranean storm petrel (BirdLife Malta)"
9049882076,true,2016-08-17 11:02:13.000,14.986,33.526,9,2016-08-17 23:05:43.000,"Average",false,2016-08-17 11:02:13.000,"solar-geolocator","Hydrobates pelagicus","Z659","S15852","Partial migration in the Mediterranean storm petrel (BirdLife Malta)"
9049882077,true,2016-08-17 23:05:43.000,14.216,33.53,9,2016-08-18 11:08:13.000,"Average",false,2016-08-17 23:05:43.000,"solar-geolocator","Hydrobates pelagicus","Z659","S15852","Partial migration in the Mediterranean storm petrel (BirdLife Malta)"
9049882078,true,2016-08-18 11:08:13.000,14.058,34.983,9,2016-08-18 23:06:43.000,"Average",false,2016-08-18 11:08:13.000,"solar-geolocator","Hydrobates pelagicus","Z659","S15852","Partial migration in the Mediterranean storm petrel (BirdLife Malta)"
9049882079,true,2016-08-18 23:06:43.000,14.343,35.424,9,2016-08-19 11:05:43.000,"Average",false,2016-08-18 23:06:43.000,"solar-geolocator","Hydrobates pelagicus","Z659","S15852","Partial migration in the Mediterranean storm petrel (BirdLife Malta)"
9049882080,true,2016-08-19 11:05:43.000,14.562,35.725,9,2016-08-19 23:04:43.000,"Average",false,2016-08-19 11:05:43.000,"solar-geolocator","Hydrobates pelagicus","Z659","S15852","Partial migration in the Mediterranean storm petrel (BirdLife Malta)"
9049882081,true,2016-08-19 23:04:43.000,14.973,35.595,9,2016-08-20 11:02:13.000,"Average",false,2016-08-19 23:04:43.000,"solar-geolocator","Hydrobates pelagicus","Z659","S15852","Partial migration in the Mediterranean storm petrel (BirdLife Malta)"
9049882082,true,2016-08-20 11:02:13.000,14.811,34.109,9,2016-08-20 23:05:43.000,"Average",false,2016-08-20 11:02:13.000,"solar-geolocator","Hydrobates pelagicus","Z659","S15852","Partial migration in the Mediterranean storm petrel (BirdLife Malta)"
9049882083,true,2016-08-20 23:05:43.000,14.223,33.665,9,2016-08-21 11:06:43.000,"Average",false,2016-08-20 23:05:43.000,"solar-geolocator","Hydrobates pelagicus","Z659","S15852","Partial migration in the Mediterranean storm petrel (BirdLife Malta)"
9049882084,true,2016-08-21 11:06:43.000,14.066,34.296,9,2016-08-21 23:06:43.000,"Average",false,2016-08-21 11:06:43.000,"solar-geolocator","Hydrobates pelagicus","Z659","S15852","Partial migration in the Mediterranean storm petrel (BirdLife Malta)"
9049882085,true,2016-08-21 23:06:43.000,14.285,33.981,9,2016-08-22 11:04:43.000,"Average",false,2016-08-21 23:06:43.000,"solar-geolocator","Hydrobates pelagicus","Z659","S15852","Partial migration in the Mediterranean storm petrel (BirdLife Malta)"
9049882086,true,2016-08-22 11:04:43.000,14.439,33.502,9,2016-08-22 23:05:13.000,"Average",false,2016-08-22 11:04:43.000,"solar-geolocator","Hydrobates pelagicus","Z659","S15852","Partial migration in the Mediterranean storm petrel (BirdLife Malta)"
9049882087,true,2016-08-22 23:05:13.000,14.22,33.996,9,2016-08-23 11:06:13.000,"Average",false,2016-08-22 23:05:13.000,"solar-geolocator","Hydrobates pelagicus","Z659","S15852","Partial migration in the Mediterranean storm petrel (BirdLife Malta)"
9049882088,true,2016-08-23 11:06:13.000,14.061,34.66,9,2016-08-23 23:06:13.000,"Average",false,2016-08-23 11:06:13.000,"solar-geolocator","Hydrobates pelagicus","Z659","S15852","Partial migration in the Mediterranean storm petrel (BirdLife Malta)"
9049882089,true,2016-08-23 23:06:13.000,14.215,34.508,9,2016-08-24 11:04:43.000,"Average",false,2016-08-23 23:06:13.000,"solar-geolocator","Hydrobates pelagicus","Z659","S15852","Partial migration in the Mediterranean storm petrel (BirdLife Malta)"
9049882090,true,2016-08-24 11:04:43.000,14.368,34.358,9,2016-08-24 23:04:43.000,"Average",false,2016-08-24 11:04:43.000,"solar-geolocator","Hydrobates pelagicus","Z659","S15852","Partial migration in the Mediterranean storm petrel (BirdLife Malta)"
9049882091,true,2016-08-24 23:04:43.000,15.1,32.554,9,2016-08-25 10:58:43.000,"Average",false,2016-08-24 23:04:43.000,"solar-geolocator","Hydrobates pelagicus","Z659","S15852","Partial migration in the Mediterranean storm petrel (BirdLife Malta)"
9049882092,true,2016-08-25 10:58:43.000,15.674,30.347,9,2016-08-25 22:59:43.000,"Average",false,2016-08-25 10:58:43.000,"solar-geolocator","Hydrobates pelagicus","Z659","S15852","Partial migration in the Mediterranean storm petrel (BirdLife Malta)"
9049882093,true,2016-08-25 22:59:43.000,15.084,31.642,9,2016-08-26 11:03:13.000,"Average",false,2016-08-25 22:59:43.000,"solar-geolocator","Hydrobates pelagicus","Z659","S15852","Partial migration in the Mediterranean storm petrel (BirdLife Malta)"
9049882094,true,2016-08-26 11:03:13.000,14.912,34.232,9,2016-08-26 23:00:43.000,"Average",false,2016-08-26 11:03:13.000,"solar-geolocator","Hydrobates pelagicus","Z659","S15852","Partial migration in the Mediterranean storm petrel (BirdLife Malta)"
9049882095,true,2016-08-26 23:00:43.000,15.443,34.787,9,2016-08-27 10:58:43.000,"Average",false,2016-08-26 23:00:43.000,"solar-geolocator","Hydrobates pelagicus","Z659","S15852","Partial migration in the Mediterranean storm petrel (BirdLife Malta)"
9049882096,true,2016-08-27 10:58:43.000,15.34,33.515,9,2016-08-27 23:01:13.000,"Average",false,2016-08-27 10:58:43.000,"solar-geolocator","Hydrobates pelagicus","Z659","S15852","Partial migration in the Mediterranean storm petrel (BirdLife Malta)"
9049882097,true,2016-08-27 23:01:13.000,15.056,32.768,9,2016-08-28 11:00:43.000,"Average",false,2016-08-27 23:01:13.000,"solar-geolocator","Hydrobates pelagicus","Z659","S15852","Partial migration in the Mediterranean storm petrel (BirdLife Malta)"
9049882098,true,2016-08-28 11:00:43.000,15.206,33.352,9,2016-08-28 22:59:43.000,"Average",false,2016-08-28 11:00:43.000,"solar-geolocator","Hydrobates pelagicus","Z659","S15852","Partial migration in the Mediterranean storm petrel (BirdLife Malta)"
9049882099,true,2016-08-28 22:59:43.000,15.232,34.33,9,2016-08-29 11:00:13.000,"Average",false,2016-08-28 22:59:43.000,"solar-geolocator","Hydrobates pelagicus","Z659","S15852","Partial migration in the Mediterranean storm petrel (BirdLife Malta)"
9049882100,true,2016-08-29 11:00:13.000,14.879,34.146,9,2016-08-29 23:02:13.000,"Average",false,2016-08-29 11:00:13.000,"solar-geolocator","Hydrobates pelagicus","Z659","S15852","Partial migration in the Mediterranean storm petrel (BirdLife Malta)"
9049882101,true,2016-08-29 23:02:13.000,14.908,32.741,9,2016-08-30 10:59:43.000,"Average",false,2016-08-29 23:02:13.000,"solar-geolocator","Hydrobates pelagicus","Z659","S15852","Partial migration in the Mediterranean storm petrel (BirdLife Malta)"
9049882102,true,2016-08-30 10:59:43.000,15.179,32.114,9,2016-08-30 22:59:43.000,"Average",false,2016-08-30 10:59:43.000,"solar-geolocator","Hydrobates pelagicus","Z659","S15852","Partial migration in the Mediterranean storm petrel (BirdLife Malta)"
9049882103,true,2016-08-30 22:59:43.000,14.894,33.38,9,2016-08-31 11:01:43.000,"Average",false,2016-08-30 22:59:43.000,"solar-geolocator","Hydrobates pelagicus","Z659","S15852","Partial migration in the Mediterranean storm petrel (BirdLife Malta)"
9049882104,true,2016-08-31 11:01:43.000,14.725,35.063,9,2016-08-31 23:00:43.000,"Average",false,2016-08-31 11:01:43.000,"solar-geolocator","Hydrobates pelagicus","Z659","S15852","Partial migration in the Mediterranean storm petrel (BirdLife Malta)"
9049882105,true,2016-08-31 23:00:43.000,15.127,34.879,9,2016-09-01 10:58:13.000,"Average",false,2016-08-31 23:00:43.000,"solar-geolocator","Hydrobates pelagicus","Z659","S15852","Partial migration in the Mediterranean storm petrel (BirdLife Malta)"
9049882106,true,2016-09-01 10:58:13.000,15.208,33.632,9,2016-09-01 22:59:43.000,"Average",false,2016-09-01 10:58:13.000,"solar-geolocator","Hydrobates pelagicus","Z659","S15852","Partial migration in the Mediterranean storm petrel (BirdLife Malta)"
9049882107,true,2016-09-01 22:59:43.000,15.107,32.978,9,2016-09-02 10:58:43.000,"Average",false,2016-09-01 22:59:43.000,"solar-geolocator","Hydrobates pelagicus","Z659","S15852","Partial migration in the Mediterranean storm petrel (BirdLife Malta)"
9049882108,true,2016-09-02 10:58:43.000,15.377,33.668,9,2016-09-02 22:57:13.000,"Average",false,2016-09-02 10:58:43.000,"solar-geolocator","Hydrobates pelagicus","Z659","S15852","Partial migration in the Mediterranean storm petrel (BirdLife Malta)"
9049882109,false,2016-09-02 22:57:13.000,15.651,34.374,7,2016-09-03 10:56:13.000,"Average",true,2016-09-02 22:57:13.000,"solar-geolocator","Hydrobates pelagicus","Z659","S15852","Partial migration in the Mediterranean storm petrel (BirdLife Malta)"
9049882110,false,2016-09-03 10:56:13.000,15.418,33.209,7,2016-09-03 22:58:43.000,"Average",true,2016-09-03 10:56:13.000,"solar-geolocator","Hydrobates pelagicus","Z659","S15852","Partial migration in the Mediterranean storm petrel (BirdLife Malta)"
9049882111,false,2016-09-03 22:58:43.000,15.131,32.259,7,2016-09-04 10:58:13.000,"Average",true,2016-09-03 22:58:43.000,"solar-geolocator","Hydrobates pelagicus","Z659","S15852","Partial migration in the Mediterranean storm petrel (BirdLife Malta)"
9049882112,false,2016-09-04 10:58:13.000,15.338,33.255,7,2016-09-04 22:56:43.000,"Average",true,2016-09-04 10:58:13.000,"solar-geolocator","Hydrobates pelagicus","Z659","S15852","Partial migration in the Mediterranean storm petrel (BirdLife Malta)"
9049882113,false,2016-09-04 22:56:43.000,15.801,33.249,7,2016-09-05 10:54:13.000,"Average",true,2016-09-04 22:56:43.000,"solar-geolocator","Hydrobates pelagicus","Z659","S15852","Partial migration in the Mediterranean storm petrel (BirdLife Malta)"
9049882114,false,2016-09-05 10:54:13.000,15.226,28.633,7,2016-09-05 23:00:43.000,"Average",true,2016-09-05 10:54:13.000,"solar-geolocator","Hydrobates pelagicus","Z659","S15852","Partial migration in the Mediterranean storm petrel (BirdLife Malta)"
9049882115,false,2016-09-05 23:00:43.000,14.094,26.893,7,2016-09-06 11:03:13.000,"Average",true,2016-09-05 23:00:43.000,"solar-geolocator","Hydrobates pelagicus","Z659","S15852","Partial migration in the Mediterranean storm petrel (BirdLife Malta)"
9049882116,false,2016-09-06 11:03:13.000,14.161,31.044,7,2016-09-06 22:59:43.000,"Average",true,2016-09-06 11:03:13.000,"solar-geolocator","Hydrobates pelagicus","Z659","S15852","Partial migration in the Mediterranean storm petrel (BirdLife Malta)"
9049882117,false,2016-09-06 22:59:43.000,15.011,31.583,7,2016-09-07 10:56:13.000,"Average",true,2016-09-06 22:59:43.000,"solar-geolocator","Hydrobates pelagicus","Z659","S15852","Partial migration in the Mediterranean storm petrel (BirdLife Malta)"
9049882118,false,2016-09-07 10:56:13.000,15.584,31.018,7,2016-09-07 22:54:43.000,"Average",true,2016-09-07 10:56:13.000,"solar-geolocator","Hydrobates pelagicus","Z659","S15852","Partial migration in the Mediterranean storm petrel (BirdLife Malta)"
9049882119,false,2016-09-07 22:54:43.000,15.607,33.078,7,2016-09-08 10:55:43.000,"Average",true,2016-09-07 22:54:43.000,"solar-geolocator","Hydrobates pelagicus","Z659","S15852","Partial migration in the Mediterranean storm petrel (BirdLife Malta)"
9049882120,false,2016-09-08 10:55:43.000,15.438,34.258,5,2016-09-08 22:55:43.000,"Average",true,2016-09-08 10:55:43.000,"solar-geolocator","Hydrobates pelagicus","Z659","S15852","Partial migration in the Mediterranean storm petrel (BirdLife Malta)"
9049882121,false,2016-09-08 22:55:43.000,15.519,34.295,5,2016-09-09 10:54:43.000,"Average",true,2016-09-08 22:55:43.000,"solar-geolocator","Hydrobates pelagicus","Z659","S15852","Partial migration in the Mediterranean storm petrel (BirdLife Malta)"
9049882122,false,2016-09-09 10:54:43.000,15.475,33.732,5,2016-09-09 22:55:43.000,"Average",true,2016-09-09 10:54:43.000,"solar-geolocator","Hydrobates pelagicus","Z659","S15852","Partial migration in the Mediterranean storm petrel (BirdLife Malta)"
9049882123,false,2016-09-09 22:55:43.000,15.432,33.14,5,2016-09-10 10:54:43.000,"Average",true,2016-09-09 22:55:43.000,"solar-geolocator","Hydrobates pelagicus","Z659","S15852","Partial migration in the Mediterranean storm petrel (BirdLife Malta)"
9049882124,false,2016-09-10 10:54:43.000,15.324,32.148,5,2016-09-10 22:56:13.000,"Average",true,2016-09-10 10:54:43.000,"solar-geolocator","Hydrobates pelagicus","Z659","S15852","Partial migration in the Mediterranean storm petrel (BirdLife Malta)"
9049882125,false,2016-09-10 22:56:13.000,15.094,31.817,5,2016-09-11 10:56:13.000,"Average",true,2016-09-10 22:56:13.000,"solar-geolocator","Hydrobates pelagicus","Z659","S15852","Partial migration in the Mediterranean storm petrel (BirdLife Malta)"
9049882126,false,2016-09-11 10:56:13.000,14.861,31.412,5,2016-09-11 22:57:43.000,"Average",true,2016-09-11 10:56:13.000,"solar-geolocator","Hydrobates pelagicus","Z659","S15852","Partial migration in the Mediterranean storm petrel (BirdLife Malta)"
9049882127,false,2016-09-11 22:57:43.000,14.631,31.035,5,2016-09-12 10:57:43.000,"Average",true,2016-09-11 22:57:43.000,"solar-geolocator","Hydrobates pelagicus","Z659","S15852","Partial migration in the Mediterranean storm petrel (BirdLife Malta)"
9049882128,false,2016-09-12 10:57:43.000,14.649,32.142,5,2016-09-12 22:57:13.000,"Average",true,2016-09-12 10:57:43.000,"solar-geolocator","Hydrobates pelagicus","Z659","S15852","Partial migration in the Mediterranean storm petrel (BirdLife Malta)"
9049882129,false,2016-09-12 22:57:13.000,15.05,30.855,5,2016-09-13 10:54:13.000,"Average",true,2016-09-12 22:57:13.000,"solar-geolocator","Hydrobates pelagicus","Z659","S15852","Partial migration in the Mediterranean storm petrel (BirdLife Malta)"
9049882130,false,2016-09-13 10:54:13.000,15.311,28.734,5,2016-09-13 22:54:43.000,"Average",true,2016-09-13 10:54:13.000,"solar-geolocator","Hydrobates pelagicus","Z659","S15852","Partial migration in the Mediterranean storm petrel (BirdLife Malta)"
9049882131,false,2016-09-13 22:54:43.000,15.021,30.384,0,2016-09-14 10:56:13.000,"Average",true,2016-09-13 22:54:43.000,"solar-geolocator","Hydrobates pelagicus","Z659","S15852","Partial migration in the Mediterranean storm petrel (BirdLife Malta)"
9049882132,false,2016-09-14 10:56:13.000,14.97,33.734,0,2016-09-14 22:54:43.000,"Average",true,2016-09-14 10:56:13.000,"solar-geolocator","Hydrobates pelagicus","Z659","S15852","Partial migration in the Mediterranean storm petrel (BirdLife Malta)"
9049882133,false,2016-09-14 22:54:43.000,15.115,35.784,0,2016-09-15 10:54:43.000,"Average",true,2016-09-14 22:54:43.000,"solar-geolocator","Hydrobates pelagicus","Z659","S15852","Partial migration in the Mediterranean storm petrel (BirdLife Malta)"
9049882134,false,2016-09-15 10:54:43.000,15.071,36.668,0,2016-09-15 22:54:43.000,"Average",true,2016-09-15 10:54:43.000,"solar-geolocator","Hydrobates pelagicus","Z659","S15852","Partial migration in the Mediterranean storm petrel (BirdLife Malta)"
9049882135,false,2016-09-15 22:54:43.000,15.476,34.602,0,2016-09-16 10:51:13.000,"Average",true,2016-09-15 22:54:43.000,"solar-geolocator","Hydrobates pelagicus","Z659","S15852","Partial migration in the Mediterranean storm petrel (BirdLife Malta)"
9049882136,false,2016-09-16 10:51:13.000,15.336,27.965,0,2016-09-16 22:55:13.000,"Average",true,2016-09-16 10:51:13.000,"solar-geolocator","Hydrobates pelagicus","Z659","S15852","Partial migration in the Mediterranean storm petrel (BirdLife Malta)"
9049882137,false,2016-09-16 22:55:13.000,14.812,24.43,0,2016-09-17 10:55:13.000,"Average",true,2016-09-16 22:55:13.000,"solar-geolocator","Hydrobates pelagicus","Z659","S15852","Partial migration in the Mediterranean storm petrel (BirdLife Malta)"
9049882138,false,2016-09-17 10:55:13.000,14.952,27.342,0,2016-09-17 22:53:43.000,"Average",true,2016-09-17 10:55:13.000,"solar-geolocator","Hydrobates pelagicus","Z659","S15852","Partial migration in the Mediterranean storm petrel (BirdLife Malta)"
9049882139,false,2016-09-17 22:53:43.000,15.287,28.388,0,2016-09-18 10:52:13.000,"Average",true,2016-09-17 22:53:43.000,"solar-geolocator","Hydrobates pelagicus","Z659","S15852","Partial migration in the Mediterranean storm petrel (BirdLife Malta)"